Location: Zaoz�rnyy
(51.1667°N, 71.5000°E)
Time: 02:00:24
(UTC+00:00)

Daily predictions for brighter satellites

Satellite Brightness Start Highest point End
(mag) Time Altitude Azimuth Time Altitude Azimuth Time Altitude Azimuth
deb Chang Zheng 4 4.3 00:00:05 10° NNE 00:04:20 51° E 00:08:35 10° S
Cosmos 1812 3.7 00:05:09 45° ESE 00:05:09 45° ESE 00:08:10 10° SSE
Cosmos 405 Rocket 4.1 00:02:13 10° SSE 00:05:40 37° E 00:09:13 10° NNE
Cosmos 2297 Rocket 4.3 00:08:13 12° N 00:08:13 12° N 00:09:39 10° N
Meteor 2-17 Rocket 4.3 00:01:50 10° S 00:07:53 85° WNW 00:14:00 10° N
ATLAS 5 CENTAUR R/B 4.3 00:08:00 10° SSE 00:10:33 16° ESE 00:13:15 10° ENE
Cosmos 1844 4.0 00:08:08 10° SSW 00:13:37 64° ESE 00:19:09 10° NE
Cosmos 2263 Rocket 3.2 00:16:27 30° NNW 00:16:27 30° NNW 00:20:16 10° NNE
Meteor 1-31 Rocket 4.3 00:13:13 10° NNE 00:15:08 28° NNE 00:15:08 28° NNE
MOS 1 Rocket 4.5 00:14:27 10° SE 00:19:13 46° ENE 00:24:15 10° N
Cosmos 1862 3.8 00:16:03 10° S 00:20:03 61° E 00:24:04 10° NNE
Cosmos 2074 Rocket 3.9 00:15:08 10° S 00:21:21 87° E 00:27:36 10° N
FENGYUN 3A 3.5 00:17:08 10° NNE 00:22:33 71° WNW 00:27:55 10° SSW
CZ-4C R/B 2.0 00:23:25 53° WSW 00:24:42 75° NW 00:31:00 10° NE
USA 307 2.8 00:26:25 79° NNW 00:26:37 83° NNE 00:30:57 10° ESE
ATLAS 3B R/B 3.2 00:29:36 37° WSW 00:30:08 37° WSW 00:36:36 10° S
USA 308 2.8 00:32:41 71° WNW 00:33:09 87° NNE 00:37:28 10° ESE
H-2A R/B 4.2 00:30:38 10° NNE 00:34:19 38° E 00:37:57 10° SSE
CZ-4B R/B 3.4 00:30:16 10° NNE 00:34:46 68° ESE 00:39:05 10° S
Meteor 2-6 Rocket 4.0 00:32:43 29° NNW 00:35:26 63° W 00:40:50 10° S
SL-4 R/B 1.7 00:38:42 73° WSW 00:38:58 78° SSW 00:42:40 10° ESE
SKYMED 2 3.5 00:35:11 10° S 00:39:28 60° WSW 00:40:04 54° WNW
FALCON 9 DEB 3.2 00:42:10 60° NE 00:42:10 60° NE 00:45:00 10° ENE
Cosmos 2082 Rocket 3.3 00:38:02 14° NNW 00:42:37 41° NE 00:47:59 10° ESE
Cosmos 2184 Rocket 3.9 00:36:58 10° SSW 00:43:18 71° WNW 00:49:42 10° N
Cosmos 1833 Rocket 3.0 00:40:26 19° NNW 00:44:31 64° NE 00:50:06 10° SE
Cosmos 1707 Rocket 4.2 00:40:18 10° N 00:44:35 55° ENE 00:48:49 10° SSE
Cosmos 2228 Rocket 3.0 00:45:52 39° NW 00:47:15 58° W 00:51:34 10° S
USA-17 4.4 00:48:26 59° N 00:48:26 59° N 00:51:07 10° NE
METEOR-M 4.1 00:43:37 10° N 00:48:51 55° WNW 00:54:03 10° SW
Envisat 4.3 00:44:08 10° NNE 00:48:58 42° E 00:53:47 10° SSE
Cosmos 1898 Rocket 3.7 00:46:43 30° WSW 00:49:01 50° WNW 00:54:14 10° NNE
Cosmos 1437 Rocket 2.5 00:51:29 45° NW 00:52:27 67° W 00:56:11 10° S
Cosmos 1500 Rocket 3.5 00:48:48 10° SSW 00:53:03 56° WNW 00:57:22 10° N
SJ 16-02 3.3 00:57:00 16° NNW 00:57:00 16° NNW 00:58:22 10° N
ADEOS 3.8 00:51:09 10° N 00:56:07 46° WNW 01:01:05 10° SW
USA 305 2.9 00:58:23 39° W 00:59:51 73° SSW 01:04:09 10° ESE
Cosmos 1937 Rocket 3.5 00:55:08 11° SW 00:59:56 53° WNW 01:05:04 10° NNE
ATLAS 5 CENTAUR R/B 3.1 01:00:57 19° N 01:00:57 19° N 01:02:07 10° NNE
Cosmos 494 Rocket 4.2 00:57:35 13° NNW 01:02:12 71° ENE 01:07:19 10° SSE
Sich 1 3.2 01:00:27 10° S 01:04:53 80° E 01:09:21 10° NNE
USA 229 DEB 4.5 01:01:32 17° NW 01:06:58 51° NNE 01:14:18 10° ESE
USA 229 4.5 01:01:38 17° NW 01:07:03 50° NNE 01:14:23 10° ESE
USA 306 3.0 01:06:43 33° W 01:08:30 67° SSW 01:12:46 10° SE
Lacrosse 5 2.2 01:08:59 28° WNW 01:11:21 49° NNW 01:16:17 10° ENE
NOSS 3-4 (A) 4.2 01:09:21 24° WNW 01:12:14 37° NNW 01:18:21 10° NE
NOSS 3-4 (C) 4.2 01:09:26 24° WNW 01:12:19 37° NNW 01:18:27 10° NE
Genesis I 4.0 01:11:55 30° NW 01:12:24 31° NW 01:15:55 10° NNE
Cosmos 1242 Rocket 3.5 01:08:49 10° N 01:12:25 49° ENE 01:15:59 10° SSE
Cosmos 2278 Rocket 3.3 01:07:46 10° S 01:13:11 48° ESE 01:18:37 10° NE
EXPRESS MD2 4.5 01:11:24 25° WSW 01:13:17 42° SSW 01:19:44 10° SE
COSMOS 2406 3.2 01:10:19 16° NW 01:14:56 71° WSW 01:20:40 10° SSE
RESURS DK-1 3.3 01:15:00 26° NW 01:15:20 27° NW 01:18:56 10° NNE
COSMOS 2455 2.8 01:09:44 10° SW 01:15:47 82° NW 01:21:53 10° NE
FALCON 9 DEB 3.0 01:15:34 37° WNW 01:16:35 60° N 01:19:48 10° ENE
Cosmos 1689 Rocket 4.2 01:14:16 10° SSW 01:14:54 14° SW 01:14:54 14° SW
Okean O Rocket 3.3 01:12:40 10° NNE 01:16:48 36° E 01:20:56 10° SSE
NOSS 3-1 (C) 4.3 01:11:55 16° NW 01:17:51 64° NE 01:26:12 10° ESE
Nadezhda 3 Rocket 4.2 01:12:37 10° NNW 01:18:37 47° W 01:24:30 10° SSW
Cosmos 1743 Rocket 4.2 01:14:36 10° SW 01:18:40 33° WNW 01:22:46 10° N
Cosmos 1048 Rocket 4.0 01:15:15 15° NNW 01:19:40 63° WSW 01:24:46 10° S
FALCON 9 DEB 3.0 01:18:32 34° WNW 01:19:40 60° N 01:22:52 10° ENE
Cosmos 1125 Rocket 4.2 01:17:22 10° S 01:22:28 58° ESE 01:27:35 10° NNE
USA 290 3.0 01:21:24 13° NNW 01:24:10 49° ENE 01:27:19 10° SE
ALOS 3.4 01:22:45 10° NNW 01:26:12 21° WNW 01:26:38 21° WNW
COSMO-SKYMED 1 3.8 01:24:27 10° SW 01:27:50 22° W 01:28:40 21° WNW
Meteor 1-27 Rocket 4.0 01:22:33 10° NNW 01:28:08 50° W 01:33:46 10° SSW
Cosmos 1862 Rocket 3.6 01:26:55 10° N 01:31:24 85° E 01:35:49 10° S
Cosmos 1844 Rocket 3.2 01:26:24 10° WSW 01:31:39 37° NW 01:36:54 10° NNE
ATLAS 2AS CENTAUR R/B 3.5 01:26:12 16° W 01:32:07 42° NNW 01:39:19 10° NE
ERBS 3.3 01:30:51 20° NW 01:32:33 33° NNE 01:35:37 10° E
Cosmos 2150 Rocket 4.0 01:27:20 10° SSW 01:32:39 88° WNW 01:37:55 10° NNE
Cosmos 2298 Rocket 4.0 01:29:30 10° SSW 01:34:48 80° WNW 01:40:09 10° NNE
Cosmos 1805 Rocket 4.0 01:32:46 10° SW 01:36:58 41° WNW 01:41:14 10° N
SL-24 DEB 4.5 01:34:15 10° SSW 01:38:53 50° W 01:43:34 10° NNW
Cosmos 1812 4.5 01:40:18 15° W 01:40:18 15° W 01:42:00 10° WSW
Spot 2 4.4 01:35:03 10° NNE 01:40:13 72° WNW 01:45:13 10° SSW
deb Kosmos-1763 4.3 01:37:24 10° NNW 01:41:00 70° ENE 01:44:36 10° SSE
Cosmos 405 Rocket 3.9 01:38:55 10° WSW 01:41:49 21° WNW 01:44:47 10° NNW
Meteor 1-20 Rocket 4.5 01:36:07 10° S 01:41:50 79° E 01:47:41 10° NNE
FALCON 9 DEB 4.3 01:40:56 17° W 01:43:04 32° SW 01:46:11 10° SSE
FALCON 9 DEB 3.1 01:41:23 19° WNW 01:43:29 59° N 01:46:41 10° E
Cosmos 1666 Rocket 3.5 01:40:17 10° SSW 01:44:35 65° WNW 01:48:56 10° N
Cosmos 1515 3.8 01:45:20 10° N 01:49:11 80° E 01:52:58 10° SSE
Cosmos 2154 Rocket 4.5 01:45:43 10° SW 01:51:26 37° WNW 01:57:14 10° N
Cosmos 1271 Rocket 3.8 01:49:41 10° N 01:53:22 44° ENE 01:57:05 10° SSE
Cosmos 2297 Rocket 4.4 01:53:29 10° N 01:53:51 10° N 01:54:13 10° N
ATLAS 5 CENTAUR R/B 1.4 01:50:17 10° SW 01:54:23 79° NW 01:59:08 10° NE
AQUARIUS 4.3 01:50:13 10° NNE 01:54:45 84° ESE 01:59:15 10° SSW
PSLV R/B 4.2 01:52:26 10° N 01:56:02 38° WNW 01:59:32 10° SW
Cosmos 372 Rocket 4.5 01:51:58 10° WSW 01:56:40 37° NW 02:01:25 10° NNE
Meteor 1-19 Rocket 4.1 01:51:25 10° NNW 01:56:55 86° W 02:02:19 10° S
Cosmos 1356 4.1 01:54:13 10° SW 01:57:20 32° WNW 02:00:28 10° N
MOS 1 Rocket 4.3 01:53:16 10° SSW 01:57:38 30° W 02:02:15 10° NNW
Cosmos 1844 4.4 01:53:17 10° WSW 01:58:10 31° NW 02:03:08 10° NNE
Cosmos 1939 Rocket 4.2 01:54:15 10° NNE 01:58:12 45° E 02:02:10 10° S
CZ-2C R/B 2.7 01:53:20 10° S 01:58:44 68° WSW 02:04:03 10° NNW
DMSP B5D2-2 4.1 01:55:28 10° SSE 02:00:42 80° WSW 02:05:57 10° NNW
Cosmos 2263 Rocket 4.0 01:58:15 10° NW 02:00:52 13° NNW 02:03:29 10° N
CZ-4 R/B 4.0 01:59:37 10° NE 02:03:11 26° E 02:06:45 10° SSE
CZ-4B DEB 4.3 01:58:37 10° N 02:03:58 57° WNW 02:09:18 10° SW
Meteor 1-18 Rocket 4.2 01:59:16 10° NNW 02:04:59 75° W 02:10:34 10° S
CORIOLIS 4.3 01:59:41 10° NNE 02:05:12 86° ESE 02:10:38 10° SSW
USA 307 4.0 02:02:35 10° WNW 02:06:25 33° SW 02:10:16 10° SSE
SL-8 Rocket 4.0 02:00:22 10° SSW 02:06:26 61° WNW 02:12:35 10° N
Cosmos 1633 Rocket 3.3 02:03:16 10° SSW 02:07:33 47° WNW 02:11:50 10° N
H-2A R/B 3.9 02:05:10 10° N 02:08:18 23° WNW 02:11:25 10° WSW
CZ-4B R/B 4.5 02:06:12 10° NNW 02:09:21 19° WNW 02:12:25 10° WSW
Okean 1 3.5 02:06:56 10° NNW 02:10:54 54° W 02:14:50 10° S
Geosat 4.0 02:06:43 10° SSE 02:11:45 83° WSW 02:16:49 10° NNW
USA 308 4.1 02:09:07 10° WNW 02:12:53 30° SW 02:16:38 10° SSE
Cosmos 2242 Rocket 3.6 02:08:30 10° NNW 02:12:58 83° WSW 02:17:21 10° S
Cosmos 2341 Rocket 4.3 02:07:18 10° SW 02:13:11 44° WNW 02:19:09 10° N
YAOGAN 6 3.4 02:10:32 10° N 02:13:32 27° WNW 02:16:31 10° SW
CZ-4C R/B 3.3 02:09:11 10° W 02:14:14 32° NNW 02:20:15 10° NE
SMAP 3.1 02:12:02 10° N 02:16:38 58° WNW 02:21:11 10° SSW
Cosmos 1727 Rocket 4.1 02:11:09 10° NNW 02:17:24 67° W 02:23:41 10° S
NOAA 6 4.3 02:12:58 10° N 02:17:49 44° WNW 02:22:38 10° SW
FALCON 9 DEB 3.0 02:14:43 10° WNW 02:17:56 67° N 02:21:07 10° E
Okean 1-7 3.1 02:13:41 10° N 02:18:01 85° E 02:22:17 10° S
SL-4 R/B 3.2 02:14:55 10° W 02:18:10 26° SW 02:21:12 10° SSE
H-2A R/B 3.0 02:17:02 10° N 02:20:30 32° WNW 02:23:56 10° SW
PAYLOAD B 4.4 02:15:34 10° N 02:20:54 51° WNW 02:26:12 10° SW
NOAA 12 4.1 02:16:45 10° N 02:21:58 62° WNW 02:27:07 10° SSW
Meteor 1-25 Rocket 4.3 02:16:44 10° SSW 02:22:10 56° WNW 02:27:40 10° N
Cosmos 1821 Rocket 4.4 02:16:32 10° S 02:22:35 71° E 02:28:43 10° NNE
SMAP 3.6 11:43:10 10° SE 11:47:26 38° ENE 11:51:45 10° N
Cosmos 1666 Rocket 3.7 11:43:20 10° N 11:47:42 54° ENE 11:52:04 10° SSE
Lacrosse 5 rocket 1.1 11:44:39 10° SW 11:48:19 67° SE 11:51:53 10° ENE
Cosmos 2360 Rocket 4.2 11:46:22 10° WNW 11:50:07 18° NNW 11:53:52 10° N
Cosmos 2219 Rocket 3.7 11:46:51 10° WSW 11:51:46 30° NW 11:56:42 10° NNE
ISS -3.8 11:48:39 10° W 11:52:02 80° N 11:55:25 10° E
Cosmos 389 Rocket 2.3 11:50:32 10° S 11:53:54 72° ESE 11:57:20 10° NNE
Cosmos 2221 3.9 11:50:52 10° SW 11:54:54 39° WNW 11:58:58 10° N
